N4TRF-13 Weather Reports


time (UTC)temp
C
wind
direction
speed
KPH
gust
KPH
rain 1hr
cm
rain 24hr
cm
rain mn
cm
humidity
%
barometer
mb
20260504191720 27 173 4.8 11.3 0.00 0.00 0.00 51 1013.0
20260504191207 27 151 4.8 11.3 0.00 0.00 0.00 48 1013.0
20260504190706 28 148 8.0 17.7 0.00 0.00 0.00 47 1013.0
20260504190207 28 228 3.2 4.8 0.00 0.00 0.00 49 1013.0
20260504185707 27 228 6.4 12.9 0.00 0.00 0.00 47 1013.0
20260504185207 27 178 9.7 16.1 0.00 0.00 0.00 48 1013.0
20260504184706 28 114 6.4 16.1 0.00 0.00 0.00 49 1013.0
20260504184206 28 206 4.8 11.3 0.00 0.00 0.00 50 1013.0
20260504183706 28 135 4.8 9.7 0.00 0.00 0.00 47 1013.0
20260504183207 27 175 3.2 9.7 0.00 0.00 0.00 49 1014.0
20260504182706 27 329 4.8 11.3 0.00 0.00 0.00 51 1014.0
20260504182206 26 145 4.8 14.5 0.00 0.00 0.00 48 1014.0
20260504181707 27 238 8.0 14.5 0.00 0.00 0.00 50 1014.0
20260504181206 27 260 4.8 11.3 0.00 0.00 0.00 50 1014.0
20260504180708 27 10 4.8 12.9 0.00 0.00 0.00 50 1014.0
20260504180206 27 187 3.2 8.0 0.00 0.00 0.00 53 1014.0
20260504175706 27 171 6.4 12.9 0.00 0.00 0.00 52 1014.0
20260504175206 27 290 4.8 14.5 0.00 0.00 0.00 55 1014.0
20260504174706 26 248 6.4 19.3 0.00 0.00 0.00 53 1014.0
20260504174206 27 217 4.8 11.3 0.00 0.00 0.00 52 1014.0
20260504173707 27 183 4.8 14.5 0.00 0.00 0.00 53 1014.0
20260504173206 27 272 4.8 12.9 0.00 0.00 0.00 52 1014.0
20260504172707 27 229 4.8 16.1 0.00 0.00 0.00 50 1014.0
20260504172206 27 101 4.8 11.3 0.00 0.00 0.00 52 1014.0
20260504171708 27 142 4.8 11.3 0.00 0.00 0.00 53 1014.0
20260504171206 27 126 3.2 12.9 0.00 0.00 0.00 57 1014.0
20260504170706 26 262 4.8 14.5 0.00 0.00 0.00 55 1014.0
20260504170207 26 190 6.4 16.1 0.00 0.00 0.00 55 1015.0
20260504160207 25 96 1.6 8.0 0.00 0.00 0.00 58 1016.0
20260504150707 22 181 1.6 8.0 0.00 0.00 0.00 64 1016.0
20260504150206 22 212 1.6 6.4 0.00 0.00 0.00 67 1016.0
20260504141209 20 127 3.2 9.7 0.00 0.00 0.00 71 1016.0
20260504140710 20 301 1.6 9.7 0.00 0.00 0.00 71 1016.0
20260504140206 19 110 1.6 4.8 0.00 0.00 0.00 73 1016.0
20260504130710 16 117 1.6 8.0 0.00 0.00 0.00 79 1016.0
20260504130207 16 104 1.6 9.7 0.00 0.00 0.00 78 1016.0
20260504120206 11 47 0.0 1.6 0.00 0.00 0.00 91 1016.0
20260504110706 10 125 0.0 0.0 0.00 0.00 0.00 92 1015.0
20260504110206 10 110 0.0 0.0 0.00 0.00 0.00 92 1015.0
20260504100206 10 157 0.0 0.0 0.00 0.00 0.00 89 1015.0
20260504081706 10 148 0.0 3.2 0.00 0.00 0.00 88 1016.0
20260504081207 10 137 0.0 0.0 0.00 0.00 0.00 88 1016.0
20260504080707 10 176 0.0 0.0 0.00 0.00 0.00 88 1016.0
20260504080206 10 137 0.0 0.0 0.00 0.00 0.00 88 1016.0
20260504070206 9 156 0.0 0.0 0.00 0.00 0.00 91 1016.0
20260504060206 10 143 0.0 0.0 0.00 0.00 0.00 84 1017.0
20260504050706 12 185 0.0 0.0 0.00 0.00 0.00 76 1017.0
20260504050206 12 31 0.0 0.0 0.00 0.00 2.24 75 1017.0
20260504045705 12 188 0.0 0.0 0.00 0.00 2.24 75 1017.0
20260504045206 12 140 0.0 0.0 0.00 0.00 2.24 74 1017.0
20260504044706 13 170 0.0 3.2 0.00 0.00 2.24 74 1017.0
20260504044206 13 146 0.0 0.0 0.00 0.00 2.24 74 1017.0
20260504043707 13 131 0.0 3.2 0.00 0.00 2.24 73 1017.0
20260504043207 13 132 0.0 0.0 0.00 0.00 2.24 73 1017.0
20260504042706 13 120 0.0 3.2 0.00 0.00 2.24 74 1017.0
20260504042206 13 134 0.0 3.2 0.00 0.00 2.24 73 1017.0
20260504041706 13 234 0.0 3.2 0.00 0.00 2.24 73 1017.0
20260504041207 13 142 0.0 0.0 0.00 0.00 2.24 74 1017.0
20260504040707 13 141 0.0 0.0 0.00 0.00 2.24 74 1017.0
20260504040206 13 146 0.0 0.0 0.00 0.00 2.24 74 1017.0
20260504035709 13 143 0.0 0.0 0.00 0.00 2.24 74 1017.0
20260504035206 13 128 0.0 0.0 0.00 0.00 2.24 74 1017.0
20260504034707 13 127 0.0 0.0 0.00 0.00 2.24 75 1017.0
20260504034206 13 143 0.0 0.0 0.00 0.00 2.24 75 1017.0
20260504033706 12 176 0.0 0.0 0.00 0.00 2.24 76 1017.0
20260504033206 12 172 0.0 0.0 0.00 0.00 2.24 76 1017.0
20260504032706 12 125 0.0 0.0 0.00 0.00 2.24 78 1017.0
20260504032206 12 134 0.0 0.0 0.00 0.00 2.24 78 1017.0
20260504031706 12 156 0.0 0.0 0.00 0.00 2.24 79 1017.0
20260504031206 12 147 0.0 0.0 0.00 0.00 2.24 79 1017.0
20260504030707 12 127 0.0 0.0 0.00 0.00 2.24 79 1017.0
20260504030207 12 167 0.0 0.0 0.00 0.00 2.24 80 1017.0
20260504025706 12 171 0.0 0.0 0.00 0.00 2.24 80 1017.0
20260504025207 12 142 0.0 0.0 0.00 0.00 2.24 81 1017.0
20260504024707 12 160 0.0 0.0 0.00 0.00 2.24 80 1017.0
20260504024206 12 186 0.0 0.0 0.00 0.00 2.24 81 1017.0
20260504023706 12 174 0.0 0.0 0.00 0.00 2.24 81 1017.0
20260504023206 12 155 0.0 0.0 0.00 0.00 2.24 81 1017.0
20260504022706 12 151 0.0 0.0 0.00 0.00 2.24 81 1017.0
20260504022206 12 184 0.0 0.0 0.00 0.00 2.24 80 1017.0
20260504021706 12 172 0.0 0.0 0.00 0.00 2.24 79 1017.0
20260504021207 12 165 0.0 0.0 0.00 0.00 2.24 78 1017.0
20260504020706 13 161 0.0 0.0 0.00 0.00 2.24 79 1017.0
20260504020207 13 134 0.0 0.0 0.00 0.00 2.24 78 1017.0
20260504015706 13 149 0.0 0.0 0.00 0.00 2.24 77 1017.0
20260504015208 13 155 0.0 0.0 0.00 0.00 2.24 76 1017.0
20260504014706 13 164 0.0 0.0 0.00 0.00 2.24 75 1017.0
20260504014206 13 150 0.0 0.0 0.00 0.00 2.24 74 1017.0
20260504013706 14 160 0.0 0.0 0.00 0.00 2.24 73 1017.0
20260504013206 14 168 0.0 0.0 0.00 0.00 2.24 72 1017.0
20260504012706 15 174 0.0 0.0 0.00 0.00 2.24 70 1017.0
20260504012206 15 180 0.0 0.0 0.00 0.00 2.24 69 1017.0
20260504011706 15 150 0.0 0.0 0.00 0.00 2.24 67 1017.0
20260504011206 16 150 0.0 0.0 0.00 0.00 2.24 67 1017.0
20260504010708 16 137 0.0 0.0 0.00 0.00 2.24 66 1017.0
20260504010207 16 139 0.0 0.0 0.00 0.00 2.24 62 1017.0
20260504005706 16 161 0.0 0.0 0.00 0.00 2.24 58 1017.0
20260504005206 17 176 0.0 0.0 0.00 0.00 2.24 58 1017.0
20260504004706 17 166 0.0 0.0 0.00 0.00 2.24 58 1017.0
20260504004206 17 144 0.0 0.0 0.00 0.00 2.24 58 1017.0
20260504003706 18 123 0.0 0.0 0.00 0.00 2.24 56 1017.0
20260504003206 18 137 0.0 0.0 0.00 0.00 2.24 53 1017.0
20260504002706 18 151 0.0 0.0 0.00 0.00 2.24 52 1017.0
20260504002206 19 172 0.0 0.0 0.00 0.00 2.24 51 1017.0
20260504001706 19 177 0.0 0.0 0.00 0.00 2.24 51 1017.0
20260504001206 20 148 0.0 0.0 0.00 0.00 2.24 51 1017.0
20260504000707 20 159 0.0 1.6 0.00 0.00 2.24 49 1017.0
20260504000206 20 188 0.0 4.8 0.00 0.00 2.24 49 1017.0
20260503235706 20 171 0.0 0.0 0.00 0.00 2.24 48 1017.0
20260503235206 21 196 0.0 4.8 0.00 0.00 2.24 46 1017.0
20260503234706 21 113 0.0 1.6 0.00 0.00 2.24 48 1017.0
20260503234206 21 156 0.0 9.7 0.00 0.00 2.24 46 1017.0
20260503233709 22 169 0.0 4.8 0.00 0.00 2.24 45 1017.0
20260503233206 22 263 0.0 4.8 0.00 0.00 2.24 45 1017.0
20260503232706 22 173 1.6 11.3 0.00 0.00 2.24 42 1017.0
20260503232207 22 88 1.6 4.8 0.00 0.00 2.24 42 1017.0
20260503231706 22 111 4.8 12.9 0.00 0.00 2.24 41 1017.0
20260503231207 23 172 3.2 9.7 0.00 0.00 2.24 39 1017.0
20260503230706 23 27 1.6 9.7 0.00 0.00 2.24 40 1017.0
20260503230206 24 106 1.6 9.7 0.00 0.00 2.24 40 1017.0
20260503225706 24 157 3.2 9.7 0.00 0.00 2.24 39 1018.0
20260503225206 24 92 1.6 8.0 0.00 0.00 2.24 40 1018.0
20260503224706 25 56 3.2 9.7 0.00 0.00 2.24 40 1018.0
20260503224206 25 155 0.0 6.4 0.00 0.00 2.24 38 1018.0
20260503223707 25 143 1.6 11.3 0.00 0.00 2.24 40 1018.0
20260503223206 24 165 1.6 6.4 0.00 0.00 2.24 42 1018.0
20260503222707 24 99 3.2 9.7 0.00 0.00 2.24 41 1018.0
20260503222206 25 247 1.6 6.4 0.00 0.00 2.24 40 1018.0
20260503221706 24 175 3.2 9.7 0.00 0.00 2.24 42 1018.0
20260503221206 25 195 4.8 11.3 0.00 0.00 2.24 40 1018.0
20260503220706 25 129 3.2 6.4 0.00 0.00 2.24 42 1018.0
20260503220206 24 7 1.6 8.0 0.00 0.00 2.24 39 1018.0
20260503215711 23 225 4.8 12.9 0.00 0.00 2.24 40 1018.0
20260503215206 23 178 4.8 11.3 0.00 0.00 2.24 43 1018.0
20260503214706 23 282 4.8 14.5 0.00 0.00 2.24 39 1018.0
20260503214207 25 328 3.2 12.9 0.00 0.00 2.24 39 1018.0
20260503213706 25 146 1.6 9.7 0.00 0.00 2.24 40 1019.0
20260503213208 23 138 4.8 12.9 0.00 0.00 2.24 39 1019.0
20260503212706 25 102 1.6 6.4 0.00 0.00 2.24 40 1019.0
20260503212207 24 185 1.6 11.3 0.00 0.00 2.24 39 1019.0
20260503211706 23 244 4.8 12.9 0.00 0.00 2.24 40 1019.0
20260503211206 24 333 3.2 9.7 0.00 0.00 2.24 42 1019.0
20260503210707 24 251 3.2 6.4 0.00 0.00 2.24 38 1019.0
20260503210208 23 157 1.6 8.0 0.00 0.00 2.24 43 1019.0
20260503205706 23 257 4.8 9.7 0.00 0.00 2.24 41 1019.0
20260503205207 22 283 8.0 17.7 0.00 0.00 2.24 41 1019.0
20260503204706 22 145 6.4 14.5 0.00 0.00 2.24 40 1019.0
20260503204206 24 287 3.2 14.5 0.00 0.00 2.24 37 1019.0
20260503203706 23 169 3.2 9.7 0.00 0.00 2.24 40 1020.0
20260503203207 23 239 3.2 11.3 0.00 0.00 2.24 40 1020.0
20260503202706 23 283 3.2 11.3 0.00 0.00 2.24 43 1020.0
20260503202206 25 287 3.2 8.0 0.00 0.00 2.24 39 1020.0
20260503201706 24 190 0.0 4.8 0.00 0.00 2.24 42 1020.0
20260503201206 22 152 3.2 11.3 0.00 0.00 2.24 44 1020.0
20260503200706 23 337 4.8 12.9 0.00 0.00 2.24 41 1020.0
20260503200206 23 327 3.2 6.4 0.00 0.00 2.24 40 1020.0
20260503195706 22 185 4.8 12.9 0.00 0.00 2.24 44 1020.0
20260503195206 21 195 6.4 16.1 0.00 0.00 2.24 43 1020.0
20260503194706 22 289 6.4 16.1 0.00 0.00 2.24 41 1020.0
20260503194206 23 158 4.8 9.7 0.00 0.00 2.24 40 1021.0
20260503193706 22 142 4.8 11.3 0.00 0.00 2.24 46 1021.0
20260503193206 22 267 4.8 12.9 0.00 0.00 2.24 44 1021.0
20260503192706 22 17 4.8 16.1 0.00 0.00 2.24 44 1021.0